Flag for Vietnam Weather past 2 weeks in Da Nang, Vietnam

Now
79 °F

Passing clouds.


Feels Like: 80 °F
Forecast: 70 / 75 °F
Wind: 6 mph from East

Location: Da Nang Airport

Current Time: Jan 30, 2015 at 12:55:57 PM

Latest Report: Jan 30, 2015 at 12:00 PM


Visibility: 4 mi

Pressure: 30.09 "Hg

Humidity: 51%

Dew point: 59 °F

Location of Da NangLocation

Historic Weather in Da Nang — Graph

°F

Da Nang temperature yesterday

Maximum temperature yesterday: 81 °F (at 11:30 AM)
Minimum temperature yesterday: 63 °F (at 3:00 AM)
Average temperature yesterday: 72 °F

Past Weeks' High & Low Weather Summary

 TemperatureHumidityPressure
High81 °F (Jan 27, 11:30 AM)94% (Jan 17, 7:30 AM)30.21 "Hg (Jan 17, 7:30 AM)
Low59 °F (Jan 23, 4:00 AM)39% (Jan 16, 12:00 PM)29.92 "Hg (Jan 27, 2:00 PM)
Average69 °F76%30.07 "Hg
* Reported Jan 15 11:00 AM — Jan 30 11:30 AM, Da Nang, Weather by CustomWeather, © 2014

Note: Actual official high and low records may vary slightly from our data, if they occured in-between our weather recording intervals... More about our weather records

Advertising

Da Nang weather history for previous 24 hours

 ConditionsComfort  
Time TempWeatherWind HumidityBarometerVisibility
11:30 AM
Jan 30
79 °FPassing clouds.5 mph54%30.12 "Hg4 mi
11:00 AM79 °FPassing clouds.2 mph51%30.12 "Hg4 mi
10:30 AM79 °FPassing clouds.2 mph54%30.12 "Hg4 mi
10:00 AM77 °FPassing clouds.No wind65%30.15 "Hg4 mi
9:30 AM75 °FScattered clouds.2 mph65%30.15 "Hg4 mi
9:00 AM77 °FScattered clouds.3 mph65%30.15 "Hg4 mi
8:30 AM77 °FFog.No wind65%30.12 "Hg3 mi
8:00 AM75 °FScattered clouds.No wind74%30.12 "Hg4 mi
7:30 AM72 °FFog.1 mph88%30.09 "Hg3 mi
7:00 AM68 °FFog.No wind88%30.09 "Hg3 mi
6:30 AM66 °FFog.No wind94%30.07 "Hg3 mi
6:00 AM66 °FPassing clouds.No wind88%30.07 "Hg4 mi
5:30 AM66 °FPassing clouds.No wind88%30.04 "Hg4 mi
5:00 AM66 °FPassing clouds.No wind94%30.04 "Hg4 mi
4:30 AM66 °FPassing clouds.No wind94%30.04 "Hg4 mi
4:00 AM66 °FPassing clouds.No wind88%30.04 "Hg4 mi
3:30 AM68 °FPassing clouds.No wind88%30.01 "Hg4 mi
3:00 AM68 °FPassing clouds.No wind88%30.01 "Hg4 mi
2:30 AM68 °FPassing clouds.No wind88%30.01 "Hg4 mi
2:00 AM70 °FPassing clouds.1 mph83%30.04 "Hg4 mi
1:30 AM70 °FPassing clouds.1 mph88%30.04 "Hg4 mi
1:00 AM70 °FPassing clouds.1 mph88%30.04 "Hg4 mi
12:30 AM70 °FPassing clouds.No wind83%30.04 "Hg4 mi
12:00 AM70 °FPassing clouds.No wind88%30.04 "Hg4 mi
11:30 PM
Jan 29
70 °FPassing clouds.No wind83%30.07 "Hg4 mi
11:00 PM70 °FPassing clouds.No wind88%30.07 "Hg4 mi
10:30 PM70 °FPassing clouds.No wind88%30.07 "Hg4 mi
10:00 PM70 °FPassing clouds.No wind88%30.04 "Hg4 mi
9:30 PM70 °FPassing clouds.1 mph88%30.07 "Hg4 mi
9:00 PM72 °FPassing clouds.1 mph83%30.07 "Hg4 mi
8:30 PM72 °FPassing clouds.1 mph83%30.04 "Hg4 mi
8:00 PM72 °FPassing clouds.2 mph83%30.04 "Hg4 mi
7:30 PM72 °FPassing clouds.2 mph83%30.04 "Hg4 mi
7:00 PM73 °FPassing clouds.3 mph78%30.04 "Hg4 mi
6:30 PM73 °FPassing clouds.5 mph78%30.01 "Hg4 mi
6:00 PM73 °FPassing clouds.2 mph74%30.01 "Hg4 mi
5:30 PM73 °FScattered clouds.6 mph74%30.01 "Hg4 mi
5:00 PM75 °FPassing clouds.8 mph69%29.98 "Hg4 mi
4:30 PM77 °FPassing clouds.9 mph65%29.98 "Hg4 mi
4:00 PM77 °FPassing clouds.10 mph61%29.98 "Hg4 mi
3:30 PM79 °FPassing clouds.10 mph58%29.98 "Hg4 mi
3:00 PM79 °FPassing clouds.12 mph54%29.98 "Hg4 mi
2:30 PM79 °FScattered clouds.10 mph58%29.98 "Hg4 mi
2:00 PM79 °FScattered clouds.13 mph54%29.98 "Hg4 mi
1:30 PM79 °FScattered clouds.13 mph54%29.98 "Hg4 mi
1:00 PM79 °FScattered clouds.9 mph54%30.01 "Hg4 mi
12:30 PM79 °FScattered clouds.10 mph54%30.01 "Hg4 mi
12:00 PM81 °FScattered clouds.5 mph54%30.04 "Hg4 mi
Weather by CustomWeather, © 2014

See weather overviewHow to use our weather pages